Regional Weather Roundup
Issued by NWS

Home | Current Version | Previous Version | Graphics & Text | Print | Product List | Glossary On
Versions: 1 2 3 4 5 6 7 8 9 10 11 12 13 14 15 16 17 18 19 20 21 22 23 24 25 26 27 28 29 30 31 32 33 34 35 36 37 38 39 40 41 42 43 44 45 46 47 48 49 50
000
ASUS45 KBOU 050210
RWRCO

WEATHER ROUNDUP FOR COLORADO
NATIONAL WEATHER SERVICE DENVER/BOULDER CO
800 PM MDT SAT JUL 04 2015

NOTE: "FAIR" INDICATES FEW OR NO CLOUDS BELOW 12000 FEET WITH NO
SIGNIFICANT WEATHER AND/OR OBSTRUCTIONS TO VISIBILITY.

COZ001>005-013-030-031-050300-
...NORTHWEST COLORADO...

CITY           SKY/WX    TMP DP  RH WIND       PRES   REMARKS
CRAIG          CLOUDY    69  53  56 S3        30.09S
HAYDEN         CLOUDY    66  48  52 N6        30.12S
MEEKER         CLOUDY    73  51  46 E10       30.12R
MOUNT WERNER   NOT AVBL
STEAMBOAT SPGS CLOUDY    69  50  50 E3        30.15S
WALDEN         MOCLDY    63  45  51 S3        30.22R
$$

COZ006>008-011-050300-
...WEST CENTRAL VALLEYS...

CITY           SKY/WX    TMP DP  RH WIND       PRES   REMARKS
GRAND JUNCTION CLOUDY    88  47  24 S7        29.91S
MONTROSE       CLOUDY    81  50  33 S9        30.04R
EAGLE          CLOUDY    75  45  33 NW14G20   30.15R
RIFLE          LGT RAIN  69  60  73 S7        30.10R
DELTA          CLOUDY    86  50  29 S3        29.98S
NUCLA          CLOUDY    79  45  29 S10G20    30.09R
$$

COZ017>023-064>068-050300-
...SOUTHWEST COLORADO...

CITY           SKY/WX    TMP DP  RH WIND       PRES   REMARKS
DURANGO        RAIN      62  57  83 NW8       30.25R
CORTEZ         MOCLDY    74  52  46 SE23G38   30.11R
PAGOSA SPRINGS CLOUDY    63  53  71 NW3       30.29R
TELLURIDE      CLOUDY    62  53  72 CALM      30.36R
WOLF CREEK PAS NOT AVBL
$$

COZ009-010-012-014-032>034-037-058>063-050300-
...CENTRAL COLORADO...

CITY           SKY/WX    TMP DP  RH WIND       PRES   REMARKS
ASPEN          MOCLDY    66  54  65 NW3       30.21R
BUENA VISTA    MOCLDY    65  48  54 SE9       30.26R
COPPER MTN     CLOUDY    59  39  47 W16       30.57R
BERTHOUD PASS  CLOUDY    48  37  66 NE3       30.63R
COTTONWOOD PAS NOT AVBL
GUNNISON       CLOUDY    72  46  40 NW10G16   30.23S
KREMMLING      CLOUDY    73  41  31 N6        30.19R
LEADVILLE      MOCLDY    60  47  61 S5        30.38R
MONARCH PASS   CLOUDY    54  37  54 SW3       30.67R
SALIDA         MOCLDY    70  49  47 E5        30.29S
SUNLIGHT       CLOUDY    55  46  71 N8G18     30.50R THUNDER
WILKERSON PASS CLOUDY    52  41  66 SE6       30.55R
$$

COZ069>075-050300-
...SAN LUIS VALLEY/SANGRE DE CRISTO MOUNTAINS...

CITY           SKY/WX    TMP DP  RH WIND       PRES   REMARKS
ALAMOSA        CLOUDY    67  46  47 E18G26    30.23R
LA VETA PASS   RAIN      46  45  93 MISG      30.46S
SAGUACHE       CLOUDY    68  54  60 CALM      30.27R
$$

COZ035-036-038>040-050300-
...NORTHERN COLORADO FRONT RANGE...

CITY           SKY/WX    TMP DP  RH WIND       PRES   REMARKS
DENVER INTL AP CLOUDY    80  48  32 SW15      30.00R
DMNS CITY PARK   N/A     76  49  38 S8G21     30.03R
AURORA         MOCLDY    76  50  40 SW20G25   30.04R
FRONT RANGE AP CLOUDY    81  46  30 E9G17     30.03R
ERIE MUNI ARPT CLOUDY    80  46  30 W16G22    29.99R
BOULDER MUN AP LGT RAIN  77  48  36 W18G26    30.01R
CENTENNIAL     CLOUDY    74  51  44 SW13      30.06R
BROOMFIELD     CLOUDY    81  46  30 MISG      30.05R
FORT COLLINS   CLOUDY    79  54  41 S5        29.94F
LONGMONT       CLOUDY    80  50  34 W10       29.99S
$$

COZ041-046-047-076>085-087-088-050300-
...PIKES PEAK/PALMER DIVIDE AND SOUTHERN FOOTHILLS...

CITY           SKY/WX    TMP DP  RH WIND       PRES   REMARKS
COLO. SPRINGS  CLOUDY    73  50  44 NW15G25   30.11R
A. F. ACADEMY  CLOUDY    66  54  63 NE9       30.14S
ELLICOTT       CLOUDY   N/A N/A N/A N22       30.07S
FALCON         CLOUDY    68  49  50 N13       30.18R
FORT CARSON    CLOUDY    74  51  43 N21G28    30.06R
LIMON          CLOUDY    78  51  38 W21G26    30.00R
MONUMENT HILL  NOT AVBL
TRINIDAD       CLOUDY    75  52  44 W13       30.06F
$$

COZ042>045-048>051-090-091-050300-
...NORTHEAST COLORADO...

CITY           SKY/WX    TMP DP  RH WIND       PRES   REMARKS
GREELEY ARPT   CLOUDY    79  63  57 CALM      29.93S
AKRON          MOCLDY    78  53  41 SE14      29.92R
BURLINGTON     CLOUDY    85  58  39 SE18      29.91R
WRAY           MOCLDY    88  56  34 SE14G22   29.86R
STERLING       MOCLDY    88  57  35 S10         N/A
HOLYOKE        MOCLDY    84  59  42 SE9       29.86R
FORT MORGAN    MOCLDY    81  57  43 NW3       29.90R
$$

COZ086-089-092>099-050300-
...SOUTHEAST COLORADO...

CITY           SKY/WX    TMP DP  RH WIND       PRES   REMARKS
PUEBLO         MOCLDY    81  52  36 W7        29.96R
LA JUNTA       PTCLDY    87  48  25 W16       29.89R
LAMAR          PTCLDY    88  56  33 S20G26    29.83R
SPRINGFIELD      N/A     74  61  63 S15G30    30.00R
$$


USA.gov is the U.S. government's official web portal to all federal, state and local government web resources and services.